Regional Weather Roundup
Issued by NWS

Home | Current Version | Previous Version | Text Only | Print | Product List | Glossary On
Versions: 1 2 3 4 5 6 7 8 9 10 11 12 13 14 15 16 17 18 19 20 21 22 23 24 25 26 27 28 29 30 31 32 33 34 35 36 37 38 39 40 41 42 43 44 45 46 47 48 49 50
000
ASUS43 KLSX 280007
RWRMO

WEATHER SUMMARY FOR MISSOURI
NATIONAL WEATHER SERVICE SPRINGFIELD MO
700 PM CDT WED MAY 27 2015

NOTE: "FAIR" INDICATES FEW OR NO CLOUDS BELOW 12,000 FEET WITH NO
       SIGNIFICANT WEATHER AND/OR OBSTRUCTIONS TO VISIBILITY.
       CURRENT SKY AND/OR WEATHER CONDITIONS ARE NOT AVAILABLE FOR
       CHILLICOTHE AND FARMINGTON.

MOZ001>031-035>038-043-044-053-054-280100-
...NORTHERN AND WESTERN MISSOURI...

CITY           SKY/WX    TMP DP  RH WIND       PRES   REMARKS
KANSAS CTY INT MOSUNNY   79  52  38 SE6       30.06S
6HR MIN TEMP:  78; 6HR MAX TEMP:  81;

KANSAS C DTWN  MOSUNNY   81  53  37 S5        30.05S
6HR MIN TEMP:  80; 6HR MAX TEMP:  85;

LEE`S SUMMIT   SUNNY     79  54  41 SE5       30.07F
6HR MIN TEMP:  78; 6HR MAX TEMP:  83;

ST JOSEPH      PTSUNNY   79  55  43 S7        30.05S
6HR MIN TEMP:  79; 6HR MAX TEMP:  83;

KIRKSVILLE     MOSUNNY   78  59  51 N3        30.09S
6HR MIN TEMP:  76; 6HR MAX TEMP:  82;


$$
MOZ066>068-077>081-088>096-101>105-280100-
...SOUTHWEST MISSOURI...

CITY           SKY/WX    TMP DP  RH WIND       PRES   REMARKS
SPRINGFIELD    MOSUNNY   81  63  54 N5        30.06F
6HR MIN TEMP:  78; 6HR MAX TEMP:  85;

JOPLIN         MOSUNNY   81  67  62 CALM      30.05S
6HR MIN TEMP:  78; 6HR MAX TEMP:  85;


$$
MOZ032>034-039>042-045>050-055>058-069>072-280100-
...CENTRAL MISSOURI...

CITY           SKY/WX    TMP DP  RH WIND       PRES   REMARKS
COLUMBIA       MOSUNNY   81  56  42 N6        30.07F
6HR MIN TEMP:  78; 6HR MAX TEMP:  83;

JEFFERSON CITY SUNNY     83  52  34 N5        30.06F
6HR MIN TEMP:  79; 6HR MAX TEMP:  84;

ROLLA          SUNNY     78  58  49 N6        30.07F
6HR MIN TEMP:  76; 6HR MAX TEMP:  80;

SEDALIA        MOSUNNY   81  55  40 E5        30.08F
6HR MIN TEMP:  78; 6HR MAX TEMP:  83;

WHITEMAN AFB   MOSUNNY   79  55  44 VRB2      30.05F
WARRENSBURG    MOSUNNY   79  54  41 NE5       30.06F
OSAGE BEACH    SUNNY     79  57  47 N3        30.07F

$$
MOZ051-052-059>065-280100-
...EAST CENTRAL MISSOURI...

CITY           SKY/WX    TMP DP  RH WIND       PRES   REMARKS
ST LOUIS INTL  MOSUNNY   79  58  48 N8        30.07R
6HR MIN TEMP:  79; 6HR MAX TEMP:  85;

SPIRIT OF STL  MOSUNNY   80  59  48 N7        30.06R
6HR MIN TEMP:  80; 6HR MAX TEMP:  83;

ST CHARLES     SUNNY     78  60  53 N8        30.06R
6HR MIN TEMP:  78; 6HR MAX TEMP:  82;


$$
MOZ072>076-082>087-097>100-106>115-280100-
...SOUTH CENTRAL AND SOUTHEAST MISSOURI...

CITY           SKY/WX    TMP DP  RH WIND       PRES   REMARKS
CAPE GIRARDEAU CLOUDY    78  70  76 S6        30.07R
6HR MIN TEMP:  76; 6HR MAX TEMP:  79;

FARMINGTON     MOSUNNY   79  64  61 SW5       30.11R
6HR MIN TEMP:  77; 6HR MAX TEMP:  81;

POPLAR BLUFF   PTSUNNY   79  70  74 SW7       30.06R
6HR MIN TEMP:  77; 6HR MAX TEMP:  80;

WEST PLAINS    PTSUNNY   76  67  73 CALM      30.08S THUNDER
6HR MIN TEMP:  75; 6HR MAX TEMP:  83;


$$



USA.gov is the U.S. government's official web portal to all federal, state and local government web resources and services.